Weather History for Gonzales, LA

Change the Weather History Date:

Saturday, March 1, 2014

  Actual Average (KBTR) Record (KBTR)
Temperature  
Mean Temperature 68 °F 58 °F  
Max Temperature 78 °F 69 °F 86 °F (1917)
Min Temperature 57 °F 48 °F 25 °F (1937)
Degree Days  
Heating Degree Days 0 8  
Month to date heating degree days 8  
Since 1 July heating degree days 1343  
Cooling Degree Days 2 1  
Month to date cooling degree days 1  
Year to date cooling degree days 32  
Growing Degree Days 18 (Base 50)    
Moisture  
Dew Point 60 °F    
Average Humidity 79    
Maximum Humidity 98    
Minimum Humidity 53    
Precipitation  
Precipitation 0.00 in 0.16 in 3.08 in (2002)
Month to date precipitation 0.16  
Year to date precipitation 10.92  
Snow  
Snow 0.00 in - - ()
Month to date snowfall  
Since 1 July snowfall  
Snow Depth -    
Sea Level Pressure  
Sea Level Pressure 30.09 in    
Wind  
Wind Speed 4 mph (SSE)    
Max Wind Speed 13 mph    
Max Gust Speed 20 mph    
Visibility 10 miles    
Events      
T = Trace of Precipitation, MM = Missing Value Source: NWS Daily Summary

Daily Weather History Graph

Daily Weather History Graph

Search for Another Location

Airport:

Trip Planner

Search our weather history database for the weather conditions in past years. The results will help you decide how hot, cold, wet, or windy it might be!

Date:

Astronomy

Mar. 01, 2014 Rise Set
Actual Time 6:29 AM CST 6:02 PM CST
Civil Twilight 6:05 AM CST 6:26 PM CST
Nautical Twilight 5:37 AM CST 6:54 PM CST
Astronomical Twilight 5:10 AM CST 7:22 PM CST
Moon 6:27 AM CST (3/1) 6:44 PM CST (3/1)
Length of Visible Light 12h 21m
Length of Day
11h 33m
New Moon, 0% of the Moon is Illuminated
Mar 1
New Moon
Mar 8
First Quarter
Mar 16
Full
Mar 23
Last Quarter
Mar 30
New

Hourly Weather History & Observations

Time (CST) Temp. Dew Point Humidity Pressure Visibility Wind Dir Wind Speed Gust Speed Precip Events Conditions
12:15 AM 59.7 °F 53.2 °F 79% 30.03 in 10.0 mi SSE 3.5 mph - N/A   Overcast
12:35 AM 59.7 °F 53.6 °F 80% 30.03 in 10.0 mi SE 3.5 mph - N/A   Overcast
12:55 AM 59.9 °F 53.8 °F 80% 30.03 in 10.0 mi ESE 4.6 mph - N/A   Overcast
1:15 AM 59.9 °F 54.1 °F 81% 30.03 in 10.0 mi ESE 3.5 mph - N/A   Overcast
1:35 AM 59.9 °F 54.1 °F 81% 30.02 in 10.0 mi ESE 3.5 mph - N/A   Overcast
1:55 AM 59.7 °F 54.5 °F 83% 30.03 in 10.0 mi Calm Calm - N/A   Overcast
2:20 AM 59.5 °F 54.5 °F 83% 30.03 in 10.0 mi Calm Calm - N/A   Overcast
2:35 AM 59.4 °F 54.5 °F 84% 30.02 in 10.0 mi Calm Calm - N/A   Overcast
2:55 AM 59.0 °F 54.0 °F 83% 30.02 in 10.0 mi Calm Calm - N/A   Overcast
3:15 AM 59.0 °F 54.1 °F 84% 30.03 in 10.0 mi Calm Calm - N/A   Overcast
3:35 AM 58.6 °F 54.3 °F 86% 30.03 in 10.0 mi Calm Calm - N/A   Overcast
3:55 AM 58.3 °F 54.9 °F 88% 30.03 in 10.0 mi ESE 3.5 mph - N/A   Overcast
4:15 AM 58.5 °F 55.4 °F 90% 30.04 in 10.0 mi ESE 3.5 mph - N/A   Mostly Cloudy
4:35 AM 58.1 °F 55.2 °F 90% 30.05 in 10.0 mi Calm Calm - N/A   Mostly Cloudy
4:55 AM 57.6 °F 55.2 °F 92% 30.05 in 10.0 mi Calm Calm - N/A   Mostly Cloudy
5:15 AM 58.5 °F 55.9 °F 91% 30.06 in 10.0 mi East 3.5 mph - N/A   Overcast
5:35 AM 57.6 °F 55.6 °F 93% 30.07 in 10.0 mi Calm Calm - N/A   Overcast
5:55 AM 58.1 °F 55.9 °F 93% 30.08 in 10.0 mi ESE 3.5 mph - N/A   Overcast
6:15 AM 57.9 °F 56.1 °F 94% 30.08 in 10.0 mi Calm Calm - N/A   Mostly Cloudy
6:35 AM 57.6 °F 56.1 °F 95% 30.09 in 10.0 mi Calm Calm - N/A   Overcast
6:55 AM 57.4 °F 55.9 °F 95% 30.10 in 10.0 mi Calm Calm - N/A   Mostly Cloudy
7:15 AM 58.8 °F 57.2 °F 94% 30.11 in 10.0 mi ESE 3.5 mph - N/A   Scattered Clouds
7:35 AM 60.1 °F 58.1 °F 93% 30.11 in 10.0 mi SE 3.5 mph - N/A   Scattered Clouds
7:55 AM 61.9 °F 59.2 °F 91% 30.12 in 10.0 mi SE 4.6 mph - N/A   Mostly Cloudy
8:15 AM 63.9 °F 59.9 °F 87% 30.12 in 10.0 mi SE 6.9 mph - N/A   Scattered Clouds
8:35 AM 65.1 °F 60.6 °F 85% 30.13 in 10.0 mi SSE 6.9 mph - N/A   Clear
8:55 AM 66.9 °F 61.3 °F 82% 30.13 in 10.0 mi SSE 5.8 mph - N/A   Scattered Clouds
9:15 AM 68.0 °F 61.2 °F 79% 30.14 in 10.0 mi SSE 9.2 mph - N/A   Scattered Clouds
9:35 AM 69.4 °F 61.9 °F 77% 30.15 in 10.0 mi South 8.1 mph - N/A   Mostly Cloudy
9:55 AM 70.7 °F 62.1 °F 74% 30.15 in 10.0 mi SSE 9.2 mph - N/A   Overcast
10:15 AM 72.0 °F 63.0 °F 73% 30.15 in 10.0 mi SSE 10.4 mph - N/A   Overcast
10:35 AM 72.9 °F 62.6 °F 70% 30.15 in 10.0 mi South 9.2 mph - N/A   Overcast
10:55 AM 73.8 °F 62.6 °F 68% 30.15 in 10.0 mi SSE 8.1 mph - N/A   Overcast
11:15 AM 73.4 °F 61.9 °F 67% 30.15 in 10.0 mi SSE 6.9 mph - N/A   Mostly Cloudy
11:35 AM 73.4 °F 62.1 °F 68% 30.14 in 10.0 mi South 10.4 mph - N/A   Mostly Cloudy
11:55 AM 73.8 °F 62.1 °F 67% 30.13 in 10.0 mi South 9.2 mph - N/A   Mostly Cloudy
12:15 PM 74.7 °F 62.2 °F 65% 30.12 in 10.0 mi SSW 9.2 mph - N/A   Mostly Cloudy
12:35 PM 75.6 °F 61.7 °F 62% 30.11 in 10.0 mi South 5.8 mph - N/A   Mostly Cloudy
12:55 PM 75.0 °F 62.1 °F 64% 30.11 in 10.0 mi South 8.1 mph - N/A   Mostly Cloudy
1:15 PM 76.8 °F 62.2 °F 61% 30.10 in 10.0 mi South 8.1 mph - N/A   Mostly Cloudy
1:35 PM 77.2 °F 61.5 °F 58% 30.09 in 10.0 mi South 12.7 mph - N/A   Scattered Clouds
1:55 PM 77.2 °F 61.3 °F 58% 30.08 in 10.0 mi South 8.1 mph - N/A   Clear
2:15 PM 78.1 °F 60.4 °F 54% 30.07 in 10.0 mi South 11.5 mph 19.6 mph N/A   Scattered Clouds
2:35 PM 78.3 °F 60.1 °F 53% 30.07 in 10.0 mi SW 12.7 mph 16.1 mph N/A   Scattered Clouds
2:55 PM 78.1 °F 60.4 °F 54% 30.07 in 10.0 mi South 8.1 mph - N/A   Scattered Clouds
3:15 PM 77.7 °F 61.3 °F 57% 30.07 in 10.0 mi South 12.7 mph 17.3 mph N/A   Mostly Cloudy
3:35 PM 77.7 °F 61.3 °F 57% 30.06 in 10.0 mi South 10.4 mph 18.4 mph N/A   Mostly Cloudy
3:55 PM 77.2 °F 61.2 °F 58% 30.06 in 10.0 mi SSW 6.9 mph - N/A   Mostly Cloudy
4:15 PM 77.0 °F 61.2 °F 58% 30.06 in 10.0 mi South 10.4 mph - N/A   Mostly Cloudy
4:35 PM 77.0 °F 61.3 °F 58% 30.07 in 10.0 mi SSW 8.1 mph 16.1 mph N/A   Mostly Cloudy
4:55 PM 76.3 °F 60.6 °F 58% 30.08 in 10.0 mi SSW 8.1 mph - N/A   Mostly Cloudy
5:15 PM 75.6 °F 60.4 °F 59% 30.08 in 10.0 mi SSW 9.2 mph - N/A   Scattered Clouds
5:35 PM 74.1 °F 60.6 °F 63% 30.08 in 10.0 mi South 6.9 mph - N/A   Scattered Clouds
5:55 PM 73.4 °F 60.8 °F 65% 30.08 in 10.0 mi South 5.8 mph - N/A   Clear
6:15 PM 72.1 °F 61.7 °F 70% 30.10 in 10.0 mi South 8.1 mph - N/A   Clear
6:35 PM 71.1 °F 62.1 °F 73% 30.11 in 10.0 mi SSW 5.8 mph - N/A   Clear
6:55 PM 69.8 °F 62.2 °F 77% 30.10 in 10.0 mi South 5.8 mph - N/A   Clear
7:15 PM 68.0 °F 62.8 °F 83% 30.10 in 10.0 mi South 4.6 mph - N/A   Clear
7:35 PM 67.3 °F 62.6 °F 85% 30.11 in 10.0 mi South 5.8 mph - N/A   Clear
7:55 PM 67.1 °F 62.6 °F 85% 30.11 in 10.0 mi Calm Calm - N/A   Clear
8:15 PM 66.6 °F 62.6 °F 87% 30.12 in 10.0 mi Calm Calm - N/A   Clear
8:35 PM 64.6 °F 61.7 °F 90% 30.12 in 10.0 mi Calm Calm - N/A   Clear
8:55 PM 64.0 °F 61.7 °F 92% 30.12 in 10.0 mi SE 3.5 mph - N/A   Clear
9:15 PM 63.5 °F 61.7 °F 94% 30.12 in 10.0 mi Calm Calm - N/A   Clear
9:35 PM 63.5 °F 61.9 °F 94% 30.13 in 10.0 mi Calm Calm - N/A   Clear
9:55 PM 63.7 °F 62.1 °F 94% 30.13 in 10.0 mi Calm Calm - N/A   Clear
10:15 PM 63.7 °F 62.2 °F 95% 30.12 in 10.0 mi Calm Calm - N/A   Clear
10:35 PM 63.5 °F 62.2 °F 96% 30.12 in 10.0 mi Calm Calm - N/A   Clear
10:55 PM 62.1 °F 61.3 °F 97% 30.12 in 10.0 mi Calm Calm - N/A   Clear
11:15 PM 62.8 °F 61.9 °F 97% 30.11 in 10.0 mi Calm Calm - N/A   Clear
11:35 PM 63.5 °F 62.8 °F 97% 30.11 in 10.0 mi SE 3.5 mph - N/A   Scattered Clouds
11:55 PM 63.1 °F 62.6 °F 98% 30.11 in 7.0 mi ESE 3.5 mph - N/A   Mostly Cloudy